Weather History for KHHR - October, 2013

Change the Weather History Date:

Wednesday, October 30, 2013

  Actual Average Record
Temperature  
Mean Temperature 62 °F -  
Max Temperature 70 °F 72 °F 95 °F (1999)
Min Temperature 53 °F 55 °F 43 °F (1971)
Degree Days  
Heating Degree Days 4    
Growing Degree Days 12 (Base 50)    
Moisture  
Dew Point 48 °F    
Average Humidity 62    
Maximum Humidity 75    
Minimum Humidity 36    
Precipitation  
Precipitation 0.00 in - - ()
Sea Level Pressure  
Sea Level Pressure 30.03 in    
Wind  
Wind Speed 2 mph (West)    
Max Wind Speed 12 mph    
Max Gust Speed -    
Visibility 9 miles    
Events      
Averages and records for this station are not official NWS values.
T = Trace of Precipitation, MM = Missing Value Source: NWS Daily Summary

Daily Weather History Graph

Daily Weather History Graph

Search for Another Location

Airport or City:

Trip Planner

Search our weather history database for the weather conditions in past years. The results will help you decide how hot, cold, wet, or windy it might be!

Date:

Astronomy

Oct. 30, 2013 Rise Set
Actual Time 7:11 AM PDT 6:02 PM PDT
Civil Twilight 6:45 AM PDT 6:27 PM PDT
Nautical Twilight 6:16 AM PDT 6:57 PM PDT
Astronomical Twilight 5:46 AM PDT 7:26 PM PDT
Moon 3:15 AM PDT (10/30) 3:41 PM PDT (10/30)
Length of Visible Light 11h 42m
Length of Day
10h 50m
Waning Crescent, 16% of the Moon is Illuminated
Oct 30
Waning Crescent
Nov 3
New
Nov 9
First Quarter
Nov 17
Full
Nov 25
Last Quarter

Hourly Weather History & Observations

Time (PDT) Temp. Dew Point Humidity Pressure Visibility Wind Dir Wind Speed Gust Speed Precip Events Conditions
12:53 AM 57.0 °F 48.0 °F 72% 30.01 in 10.0 mi Calm Calm - N/A   Clear
1:53 AM 55.9 °F 46.0 °F 69% 30.01 in 10.0 mi Calm Calm - N/A   Clear
2:53 AM 54.0 °F 46.0 °F 75% 30.01 in 10.0 mi Calm Calm - N/A   Clear
3:53 AM 54.0 °F 46.0 °F 75% 30.01 in 10.0 mi Calm Calm - N/A   Clear
4:53 AM 54.0 °F 46.0 °F 75% 30.01 in 10.0 mi Calm Calm - N/A   Clear
5:53 AM 54.0 °F 46.0 °F 75% 30.03 in 10.0 mi Calm Calm - N/A   Clear
6:53 AM 53.1 °F 45.0 °F 74% 30.04 in 10.0 mi Calm Calm - N/A   Clear
7:53 AM 55.0 °F 46.0 °F 72% 30.05 in 10.0 mi Calm Calm - N/A   Clear
8:53 AM 59.0 °F 46.0 °F 62% 30.06 in 10.0 mi Calm Calm - N/A   Clear
9:31 AM 60.8 °F 46.4 °F 59% 30.07 in 1.8 mi Calm Calm - N/A   Haze
9:38 AM 60.8 °F 46.4 °F 59% 30.07 in 10.0 mi Calm Calm - N/A   Clear
9:53 AM 61.0 °F 46.9 °F 60% 30.07 in 10.0 mi Calm Calm - N/A   Clear
10:32 AM 62.6 °F 46.4 °F 55% 30.07 in 1.8 mi Calm Calm - N/A   Haze
10:40 AM 62.6 °F 46.4 °F 55% 30.07 in 10.0 mi Calm Calm - N/A   Clear
10:53 AM 63.0 °F 46.0 °F 54% 30.07 in 10.0 mi Calm Calm - N/A   Clear
11:53 AM 66.0 °F 45.0 °F 47% 30.06 in 10.0 mi WSW 4.6 mph - N/A   Clear
12:53 PM 70.0 °F 42.1 °F 36% 30.04 in 10.0 mi NNE 4.6 mph - N/A   Clear
1:53 PM 68.0 °F 44.1 °F 42% 30.01 in 10.0 mi WSW 10.4 mph - N/A   Clear
2:20 PM 68.0 °F 46.4 °F 46% 30.01 in 1.2 mi WSW 8.1 mph - N/A   Haze
2:30 PM 68.0 °F 46.4 °F 46% 30.01 in 10.0 mi West 9.2 mph - N/A   Clear
2:53 PM 68.0 °F 46.9 °F 47% 30.00 in 10.0 mi West 9.2 mph - N/A   Clear
3:53 PM 66.0 °F 48.9 °F 54% 30.00 in 10.0 mi WSW 11.5 mph - N/A   Clear
4:53 PM 66.0 °F 46.9 °F 50% 30.00 in 10.0 mi West 8.1 mph - N/A   Clear
5:53 PM 63.0 °F 52.0 °F 67% 30.00 in 10.0 mi WNW 4.6 mph - N/A   Clear
6:53 PM 63.0 °F 52.0 °F 67% 30.01 in 10.0 mi West 4.6 mph - N/A   Clear
7:53 PM 62.1 °F 53.1 °F 72% 30.02 in 10.0 mi West 4.6 mph - N/A   Clear
8:53 PM 61.0 °F 53.1 °F 75% 30.02 in 10.0 mi WNW 3.5 mph - N/A   Clear
9:53 PM 60.1 °F 52.0 °F 75% 30.04 in 10.0 mi Calm Calm - N/A   Clear
10:53 PM 60.1 °F 52.0 °F 75% 30.05 in 10.0 mi Calm Calm - N/A   Clear
11:53 PM 59.0 °F 51.1 °F 75% 30.04 in 10.0 mi Calm Calm - N/A   Clear